Flight Track Log - Related Links

Times and Time Zones

All times are in EDT time to prevent confusion due to time zone crossing. See the N959TX flight status page for this flight to view local times or setup timezone preferences in your user account.

Time Position Orientation Groundspeed Altitude Reporting Facility
EDT Latitude Longitude Course Direction KTS MPH feet Rate Location/Type
Sat 06:11:18 PM 37.7358 -97.2225 201° Southwest 110 127 1,800  Level Kansas City Center
Sat 06:12:01 PM 37.7119 -97.2342 201° Southwest 114 131 2,400 699 Climbing Kansas City Center
Sat 06:13:01 PM 37.6828 -97.2389 187° South 111 128 3,000 608 Climbing Kansas City Center
Sat 06:13:20 PM 37.6731 -97.2381 176° South 113 130 3,200 716 Climbing Kansas City Center
Sat 06:14:08 PM 37.6483 -97.2308 167° South 109 125 3,800 581 Climbing Kansas City Center
Sat 06:14:22 PM 37.6419 -97.2297 172° South 113 130 3,800 79 Level Kansas City Center
Sat 06:15:24 PM 37.6083 -97.2222 170° South 114 131 3,900 112 Climbing Kansas City Center
Sat 06:16:09 PM 37.5756 -97.2161 172° South 147 169 4,000 97 Climbing Kansas City Center
Sat 06:16:26 PM 37.5686 -97.2133 162° South 128 147 4,000 532 Level Kansas City Center
Sat 06:17:28 PM 37.5322 -97.2061 171° South 133 153 4,700 800 Climbing Kansas City Center
Sat 06:18:11 PM 37.5067 -97.2006 170° South 110 127 5,400 774 Climbing Kansas City Center
Sat 06:18:30 PM 37.5014 -97.2000 175° South 125 144 5,500 700 Climbing Kansas City Center
Sat 06:19:11 PM 37.4744 -97.1950 172° South 114 131 6,100 677 Climbing Kansas City Center
Sat 06:19:32 PM 37.4703 -97.1936 165° South 119 137 6,200 689 Climbing Kansas City Center
Sat 06:20:12 PM 37.4422 -97.1869 169° South 117 135 6,800 871 Climbing Kansas City Center
Sat 06:20:34 PM 37.4317 -97.1842 168° South 118 136 7,100 723 Climbing Kansas City Center
Sat 06:21:35 PM 37.3981 -97.1775 171° South 118 136 7,800 732 Climbing Kansas City Center
Sat 06:22:37 PM 37.3647 -97.1708 171° South 118 136 8,600 726 Climbing Kansas City Center
Sat 06:23:39 PM 37.3322 -97.1625 168° South 119 137 9,300 726 Climbing Kansas City Center
Sat 06:24:41 PM 37.2983 -97.1586 175° South 120 138 10,100 774 Climbing Kansas City Center
Sat 06:25:43 PM 37.2672 -97.1500 168° South 119 137 10,900 732 Climbing Kansas City Center
Sat 06:26:44 PM 37.2328 -97.1425 170° South 120 138 11,600 829 Climbing Kansas City Center
Sat 06:27:46 PM 37.1844 -97.1331 171° South 140 161 12,600 919 Climbing Kansas City Center
Sat 06:28:48 PM 37.1422 -97.1247 171° South 146 168 13,500 871 Climbing Kansas City Center
Sat 06:29:50 PM 37.1031 -97.1131 167° South 148 170 14,400 919 Climbing Kansas City Center
Sat 06:30:52 PM 37.0625 -97.1047 171° South 148 170 15,400 927 Climbing Kansas City Center
Sat 06:31:53 PM 37.0203 -97.0956 170° South 148 170 16,300 732 Climbing Kansas City Center
Sat 06:32:55 PM 36.9764 -97.0889 173° South 156 180 16,900 339 Climbing Kansas City Center
Sat 06:33:57 PM 36.9269 -97.0772 169° South 172 198 17,000 48 Climbing Kansas City Center
Sat 06:34:59 PM 36.8594 -97.0647 172° South 197 227 17,000  Level Kansas City Center
Sat 06:36:00 PM 36.8133 -97.0528 168° South 198 228 17,000  Level Kansas City Center
Sat 06:37:02 PM 36.7497 -97.0389 170° South 193 222 17,000  Level Kansas City Center
Sat 06:38:04 PM 36.6956 -97.0283 171° South 195 224 17,000  Level Kansas City Center
Sat 06:39:06 PM 36.6417 -97.0178 171° South 195 224 17,000  Level Kansas City Center
Sat 06:40:07 PM 36.5878 -97.0061 170° South 195 224 17,000  Level Kansas City Center
Sat 06:41:09 PM 36.5322 -96.9944 170° South 195 224 17,000  Level Kansas City Center
Sat 06:42:11 PM 36.4781 -96.9817 169° South 196 226 17,000  Level Kansas City Center
Sat 06:43:13 PM 36.4236 -96.9706 171° South 196 226 17,000  Level Kansas City Center
Sat 06:44:14 PM 36.3697 -96.9594 171° South 196 226 17,000  Level Kansas City Center
Sat 06:45:16 PM 36.3158 -96.9481 170° South 196 226 17,000  Level Kansas City Center
Sat 06:46:18 PM 36.2500 -96.9336 170° South 198 228 17,000  Level Kansas City Center
Sat 06:47:19 PM 36.1958 -96.9219 170° South 198 228 17,000  Level Kansas City Center
Sat 06:48:21 PM 36.1411 -96.9125 172° South 198 228 17,000  Level Kansas City Center
Sat 06:49:23 PM 36.0869 -96.9011 170° South 198 228 17,000  Level Kansas City Center
Sat 06:50:25 PM 36.0317 -96.8894 170° South 198 228 17,000  Level Kansas City Center
Sat 06:51:26 PM 35.9778 -96.8786 171° South 199 229 17,000  Level Kansas City Center
Sat 06:52:28 PM 35.9219 -96.8669 170° South 199 229 17,000  Level Kansas City Center
Sat 06:53:30 PM 35.8656 -96.8547 170° South 200 230 17,000  Level Kansas City Center
Sat 06:54:31 PM 35.7981 -96.8408 171° South 202 232 17,000  Level Kansas City Center
Sat 06:55:33 PM 35.7433 -96.8278 169° South 202 232 17,000  Level Kansas City Center
Sat 06:56:35 PM 35.6869 -96.8172 171° South 202 232 17,000  Level Kansas City Center
Sat 06:57:36 PM 35.6308 -96.8061 171° South 202 232 17,000  Level Kansas City Center
Sat 06:58:45 PM 35.5636 -96.7936 171° South 202 232 17,000  Level Fort Worth Center
Sat 06:59:47 PM 35.5078 -96.7819 170° South 203 234 17,000  Level Fort Worth Center
Sat 07:00:48 PM 35.4514 -96.7700 170° South 203 234 17,000  Level Fort Worth Center
Sat 07:01:50 PM 35.3953 -96.7583 170° South 203 234 17,000  Level Fort Worth Center
Sat 07:02:52 PM 35.3392 -96.7464 170° South 203 234 17,000 -48 Level Fort Worth Center
Sat 07:03:54 PM 35.2817 -96.7353 171° South 203 234 16,900 -48 Descending Fort Worth Center
Sat 07:04:56 PM 35.2242 -96.7236 171° South 205 236 16,900  Level Fort Worth Center
Sat 07:05:58 PM 35.1578 -96.7111 171° South 205 236 16,900  Level Fort Worth Center
Sat 07:06:59 PM 35.1039 -96.7092 178° South 197 227 16,900  Level Fort Worth Center
Sat 07:08:01 PM 35.0489 -96.7047 176° South 197 227 16,900  Level Fort Worth Center
Sat 07:09:03 PM 34.9936 -96.7008 177° South 197 227 16,900  Level Fort Worth Center
Sat 07:10:05 PM 34.9394 -96.6986 178° South 197 227 16,900  Level Fort Worth Center
Sat 07:11:07 PM 34.8847 -96.6931 175° South 197 227 16,900  Level Fort Worth Center
Sat 07:12:08 PM 34.8281 -96.6886 176° South 198 228 16,900 -195 Level Fort Worth Center
Sat 07:13:10 PM 34.7647 -96.6867 179° South 196 226 16,500 -435 Descending Fort Worth Center
Sat 07:14:12 PM 34.7111 -96.6808 175° South 195 224 16,000 -435 Descending Fort Worth Center
Sat 07:15:14 PM 34.6608 -96.6775 177° South 186 214 15,600 -435 Descending Fort Worth Center
Sat 07:16:16 PM 34.6092 -96.6739 177° South 186 214 15,100 -484 Descending Fort Worth Center
Sat 07:17:18 PM 34.5575 -96.6706 177° South 186 214 14,600 -439 Descending Fort Worth Center
Sat 07:18:19 PM 34.5069 -96.6678 177° South 185 213 14,200 -439 Descending Fort Worth Center
Sat 07:19:21 PM 34.4556 -96.6633 176° South 185 213 13,700 -484 Descending Fort Worth Center
Sat 07:20:23 PM 34.3947 -96.6375 161° South 192 221 13,200 -435 Descending Fort Worth Center
Sat 07:21:25 PM 34.3433 -96.6103 156° South 197 227 12,800 -390 Descending Fort Worth Center
Sat 07:22:26 PM 34.2958 -96.5789 151° Southeast 197 227 12,400 -439 Descending Fort Worth Center
Sat 07:23:28 PM 34.2481 -96.5503 154° Southeast 196 226 11,900 -387 Descending Fort Worth Center
Sat 07:24:30 PM 34.2039 -96.5178 149° Southeast 191 220 11,600 -390 Descending Fort Worth Center
Sat 07:25:31 PM 34.1575 -96.4836 149° Southeast 192 221 11,100 -439 Descending Fort Worth Center
Sat 07:26:33 PM 34.1114 -96.4494 148° Southeast 194 223 10,700 -532 Descending Fort Worth Center
Sat 07:27:35 PM 34.0583 -96.4072 147° Southeast 193 222 10,000 -585 Descending Fort Worth Center
Sat 07:28:36 PM 34.0183 -96.3694 142° Southeast 186 214 9,500 -439 Descending Fort Worth Center
Sat 07:29:38 PM 33.9761 -96.3800 192° South 175 201 9,100 -435 Descending Fort Worth Center
Sat 07:30:40 PM 33.9350 -96.3958 198° South 161 185 8,600 -488 Descending Fort Worth Center
Sat 07:31:41 PM 33.8942 -96.4139 200° South 158 182 8,100 -488 Descending Fort Worth Center
Sat 07:32:43 PM 33.8525 -96.4289 197° South 158 182 7,600 -484 Descending Fort Worth Center
Sat 07:33:45 PM 33.8064 -96.4494 200° South 158 182 7,100 -488 Descending Fort Worth Center
Sat 07:34:46 PM 33.7608 -96.4681 199° South 158 182 6,600 -439 Descending Fort Worth Center
Sat 07:35:48 PM 33.7178 -96.4864 200° South 161 185 6,200 -290 Descending Fort Worth Center
Sat 07:36:50 PM 33.6731 -96.5047 199° South 169 194 6,000 -98 Descending Fort Worth Center
Sat 07:37:51 PM 33.6247 -96.5236 198° South 170 196 6,000  Level Fort Worth Center
Sat 07:38:53 PM 33.5811 -96.5425 200° South 169 194 6,000  Level Fort Worth Center
Sat 07:39:54 PM 33.5381 -96.5597 198° South 167 192 6,000  Level Fort Worth Center
Sat 07:40:56 PM 33.4931 -96.5789 200° South 162 186 6,000  Level Fort Worth Center
Sat 07:41:58 PM 33.4525 -96.5958 199° South 156 180 6,000  Level Fort Worth Center
Sat 07:42:59 PM 33.4217 -96.6319 224° Southwest 155 178 6,000 -195 Level Fort Worth Center
Sat 07:44:01 PM 33.3917 -96.6769 231° Southwest 157 181 5,600 -488 Descending Fort Worth Center
Sat 07:45:02 PM 33.3536 -96.7053 212° Southwest 160 184 5,000 -585 Descending Fort Worth Center
Sat 07:46:04 PM 33.3136 -96.7306 208° Southwest 163 188 4,400 -537 Descending Fort Worth Center
Sat 07:47:05 PM 33.2703 -96.7622 211° Southwest 167 192 3,900 -488 Descending Fort Worth Center
Sat 07:48:07 PM 33.2306 -96.7922 212° Southwest 167 192 3,400 -439 Descending Fort Worth Center
Sat 07:49:08 PM 33.1914 -96.8219 212° Southwest 168 193 3,000 -293 Descending Fort Worth Center
Sat 07:50:10 PM 33.1567 -96.8469 211° Southwest 138 159 2,800 -387 Descending Fort Worth Center
Sat 07:51:12 PM 33.1206 -96.8725 211° Southwest 140 161 2,200 -390 Descending Fort Worth Center
Sat 07:52:13 PM 33.0825 -96.8808 190° South 137 158 2,000 -146 Descending Fort Worth Center
Sat 07:53:15 PM 33.0500 -96.8697 164° South 125 144 1,900 -293 Descending Fort Worth Center
Sat 07:54:16 PM 33.0144 -96.8564 163° South 126 145 1,400 -585 Descending Fort Worth Center
Sat 07:55:18 PM 32.9811 -96.8417 160° South 129 148 700 -677 Descending Fort Worth Center
Sat 07:57:00 PM 32.9667 -96.8333 157° South  Level FlightAware Approximate
Sat 08:04:00 PM 32.9686 -96.8364 157° South  Level Estimated

Login

Don't have an account? Register now (free) for customized features, flight alerts, and more!